Weather Service Report


930 
ASUS43 KDMX 030207
RWRIA 

WEATHER ROUNDUP FOR IOWA
NATIONAL WEATHER SERVICE DES MOINES IA
900 PM CDT SUN AUG 02 2015

NOTE: "FAIR" INDICATES FEW OR NO CLOUDS BELOW 12,000 FEET WITH NO
SIGNIFICANT WEATHER AND/OR OBSTRUCTIONS TO VISIBILITY.

* - THESE STATIONS ARE NOT NWS STATIONS...THUS NOT UNDER NWS
QUALITY CONTROL.  THEY ALSO DO NOT REPORT WEATHER SUCH 
AS PRECIPITATION OR FOG.  

IAZ001>003-012>014-020>022-031>034-043>046-030300-
   NORTHWEST IOWA
  
CITY           SKY/WX    TMP DP  RH WIND       PRES   REMARKS
CARROLL *      CLEAR     77  73  88 NW3       29.82S                  
CHEROKEE *     CLEAR     75  68  78 NW6       29.85R                  
DENISON *      CLEAR     77  72  83 N6        29.82R                  
LE MARS *      CLEAR     75  68  78 NW7       29.86R                  
ORANGE CITY *  CLEAR     73  61  64 N9        29.87R                  
SHELDON *      CLEAR     70  64  83 N6        29.86R                  
SPENCER        CLEAR     73  58  59 N9        29.86R                  
STORM LAKE *   CLEAR     75  68  78 NW7       29.86R                  
$$
 
IAZ055>058-069>071-079>083-090>094-030300-
   SOUTHWEST IOWA
  
CITY           SKY/WX    TMP DP  RH WIND       PRES   REMARKS
ATLANTIC *     CLEAR     79  75  89 N6        29.83R HX  82           
AUDUBON *      CLEAR     75  72  88 CALM      29.84S                  
CLARINDA *     CLOUDY    82  79  89 CALM      29.84R HX  93           
COUNCIL BLFS * MOCLDY    82  75  78 N5        29.83R HX  89           
CRESTON *      MOCLDY    70  61  73 S10       29.85F                  
HARLAN  *      CLEAR     75  75 100 CALM      29.86R                  
LAMONI         TSTM      74  58  57 SW20      29.84F                  
RED OAK *      CLEAR     81  75  83 CALM      29.82R HX  86           
SHENANDOAH *   CLEAR     82  77  83 E8        29.82R HX  91           
$$
 
IAZ047>049-059>061-072>074-084-030300-
   CENTRAL IOWA
  
CITY           SKY/WX    TMP DP  RH WIND       PRES   REMARKS
AMES           CLEAR     74  70  87 SW7       29.80R                  
ANKENY *       CLEAR     75  66  73 SW5       29.80S                  
CHARITON *     CLEAR     68  63  83 CALM      29.82S                  
DES MOINES     PTCLDY    77  67  71 SW7       29.81R                  
GRINNELL*      PTCLDY    73  61  64 W8        29.81S                  
KNOXVILLE *    CLEAR     72  59  64 SW8       29.79R                  
MARSHALLTOWN   CLEAR     75  70  84 W7        29.78R                  
PELLA *        PTCLDY    72  63  73 S3        29.80S                  
PERRY *          N/A     79  75  89 NW5       29.81S HX  82           
$$
 
IAZ004>006-015-016-023>025-035-036-030300-
   NORTH CENTRAL IOWA
  
CITY           SKY/WX    TMP DP  RH WIND       PRES   REMARKS
ALGONA *       CLEAR     73  61  64 N8        29.84R                  
CLARION *      CLEAR     72  63  73 N6        29.82R                  
ESTHERVILLE    CLEAR     69  60  73 NW8       29.85R                  
FORT DODGE *   CLEAR     75  63  64 N5        29.84R                  
MASON CITY     CLEAR     72  61  68 NW12      29.82R                  
FOREST CITY *  CLEAR     72  59  64 NW6       29.82R                  
IOWA FALLS *     N/A     73  66  78 NW6       29.81R                  
$$

IAZ007>011-017>019-026>030-037>042-050>054-066-030300-
   NORTHEAST IOWA
  
CITY           SKY/WX    TMP DP  RH WIND       PRES   REMARKS
CEDAR RAPIDS   PTCLDY    79  76  90 SW9       29.75R HX  83           
CHARLES CITY * CLEAR     72  66  83 NW7       29.79R                  
CLINTON *      CLEAR     81  73  78 W12       29.73S HX  85           
DECORAH *      MOCLDY    77  63  61 NW6       29.74R                  
DUBUQUE        CLEAR     80  68  66 W13       29.73R HX  83           
MONTICELLO *   CLEAR     79  73  83 W7        29.73R HX  82           
OELWEIN *        N/A     73  66  78 NW6       29.77R                  
WATERLOO       CLEAR     77  67  71 W7        29.75R                  
$$
 
IAZ064-065-067-068-078-030300-
   EAST CENTRAL IOWA
  
CITY           SKY/WX    TMP DP  RH WIND       PRES   REMARKS
DAVENPORT      PTCLDY    82  74  76 SW10      29.72F HX  88           
IOWA CITY      MOCLDY    80  59  48 W17       29.76R HX  81           
MT. PLEASANT * CLOUDY    82  72  69 SW7       29.76F HX  87           
MUSCATINE *    MOCLDY    84  73  70 W21G29    29.74S HX  91           
QUAD CITIES    PTCLDY    84  74  71 SW13      29.71F HX  91           
$$
 
IAZ062-063-075>077-085>089-095>099-030300-
   SOUTHEAST IOWA
  
CITY           SKY/WX    TMP DP  RH WIND       PRES   REMARKS
BURLINGTON     CLOUDY    82  73  74 SW8       29.76F HX  87           
FAIRFIELD *    CLEAR     82  73  74 W10G17    29.79R HX  88           
FORT MADISON * CLEAR     81  73  78 SW5       29.78F HX  85           
KEOKUK *       PTCLDY    82  73  74 SW10      29.77F HX  88           
OSKALOOSA *      N/A     73  64  73 W6        29.80S                  
CENTERVILLE *  CLEAR     72  57  60 S12       29.85R                  
OTTUMWA        MOCLDY    73  63  70 SW7       29.78R                  
WASHINGTON *   CLEAR     75  63  64 W10G17    29.77F                  
$$

ABBREVIATIONS USED IN REMARKS
   TC - TEMPERATURES IN CELSIUS
  WCI - WIND CHILL INDEX
   HX - HEAT INDEX
  VSB - VISIBILITY  
$$


Return to Home page


Western Regional Climate Center, wrcc@dri.edu